HARMALA Weather Reports


time (UTC)temp
C
wind
direction
speed
KPH
gust
KPH
rain 1hr
cm
rain 24hr
cm
rain mn
cm
humidity
%
barometer
mb
20260906064125 10 0.0 0.0 0.00 0.03 0.00 66 1006.3
20260906062126 10 0.0 0.0 0.00 0.03 0.00 73 1006.1
20260906060125 10 0.0 0.0 0.00 0.03 0.00 75 1006.0
20260906054455 9 0.0 0.0 0.00 0.03 0.00 78 1005.8
20260906052456 9 0.0 0.0 0.00 0.03 0.00 83 1005.6
20260906050456 8 0.0 0.0 0.00 0.03 0.00 88 1005.5
20260906044126 8 0.0 0.0 0.00 0.03 0.00 91 1005.4
20260906040455 8 0.0 0.0 0.00 0.03 0.00 91 1005.1
20260906034455 8 0.0 0.0 0.00 0.03 0.00 91 1005.0
20260906032455 8 0.0 0.0 0.00 0.03 0.00 89 1004.8
20260906030456 9 0.0 0.0 0.00 0.03 0.00 85 1004.6
20260906024455 9 0.0 0.0 0.00 0.03 0.00 83 1004.5
20260906022456 10 0.0 0.0 0.00 0.03 0.00 79 1004.2
20260906014456 10 0.0 0.0 0.00 0.03 0.00 79 1003.8
20260906012454 10 0.0 0.0 0.00 0.03 0.00 80 1003.5
20260906010456 10 0.0 0.0 0.00 0.03 0.00 79 1003.3
20260906004457 10 0.0 0.0 0.00 0.03 0.00 79 1003.1
20260906002455 10 0.0 0.0 0.00 0.03 0.00 84 1002.8
20260906000455 10 0.0 0.0 0.00 0.03 0.00 86 1002.6
20260905234454 10 0.0 0.0 0.00 0.03 0.00 86 1002.5
20260905230454 10 0.0 0.0 0.00 0.03 0.00 86 1002.2
20260905224454 10 0.0 0.0 0.00 0.03 0.00 87 1002.1
20260905222454 10 0.0 0.0 0.00 0.03 0.00 85 1002.0
20260905220454 10 0.0 0.0 0.00 0.03 0.00 84 1001.8
20260905214454 10 0.0 0.0 0.00 0.03 0.00 83 1001.7
20260905212455 10 0.0 0.0 0.00 0.03 0.00 81 1001.4
20260905210123 10 0.0 0.0 0.00 0.03 0.00 85 1001.2
20260905204453 10 0.0 0.0 0.00 0.03 0.03 87 1001.0
20260905202454 10 0.0 0.0 0.00 0.03 0.03 88 1000.8
20260905200455 10 0.0 0.0 0.00 0.03 0.03 87 1000.5
20260905194123 11 0.0 0.0 0.00 0.03 0.03 87 1000.4
20260905190453 11 0.0 0.0 0.00 0.03 0.03 85 1000.4
20260905182453 12 0.0 0.0 0.00 0.03 0.03 79 999.9
20260905180451 12 0.0 0.0 0.00 0.03 0.03 79 999.7
20260905174451 12 0.0 0.0 0.00 0.03 0.03 77 999.5
20260905172452 12 0.0 0.0 0.00 0.03 0.03 77 999.1
20260905170453 13 0.0 0.0 0.00 0.03 0.03 76 998.8
20260905162451 13 0.0 0.0 0.00 0.03 0.03 83 998.3
20260905160453 13 0.0 0.0 0.00 0.03 0.03 76 998.0
20260905154124 13 0.0 0.0 0.00 0.00 0.00 74 997.7
20260905152124 13 0.0 0.0 0.00 0.00 0.00 79 997.5
20260905150122 13 0.0 0.0 0.00 0.00 0.00 76 997.4
20260905144453 15 0.0 0.0 0.00 0.00 0.00 70 997.0
20260905134452 16 0.0 0.0 0.00 0.00 0.00 70 996.4
20260905130456 15 0.0 0.0 0.00 0.00 0.00 69 996.5
20260905124452 15 0.0 0.0 0.00 0.00 0.00 74 996.3
20260905122452 15 0.0 0.0 0.00 0.00 0.00 71 996.2
20260905114452 15 0.0 0.0 0.00 0.00 0.00 69 995.9
20260905112454 16 0.0 0.0 0.00 0.00 0.00 66 995.7
20260905110451 15 0.0 0.0 0.00 0.00 0.00 68 995.7
20260905104453 15 0.0 0.0 0.00 0.00 0.00 65 995.6
20260905102452 15 0.0 0.0 0.00 0.00 0.00 64 995.5
20260905100452 15 0.0 0.0 0.00 0.00 0.00 61 995.1
20260905094451 15 0.0 0.0 0.00 0.00 0.00 61 995.0
20260905092451 15 0.0 0.0 0.00 0.00 0.00 62 995.1
20260905090121 15 0.0 0.0 0.00 0.18 0.00 67 995.0
20260905084453 15 0.0 0.0 0.00 0.18 0.00 72 994.9
20260905082124 14 0.0 0.0 0.00 0.18 0.00 74 994.9
20260905080121 13 0.0 0.0 0.00 0.51 0.00 77 994.9
20260905072450 12 0.0 0.0 0.00 0.51 0.00 98 994.7
20260905070123 11 0.0 0.0 0.00 0.51 0.00 100 994.7